When you browse on this site, cookies collect data to enhance your experience and personalize the content and advertising you see.
Visit our Privacy Policy to learn more. By continuing to use the site, you agree to this use of cookies and data.
  • In Czech Republic
  • List of Countries
  • For 7 days
  • Water Temperature
  • Weather Map
  • Weather Widgets
  • user-avatar
    Login

    Hourly Weather Eskilstuna

    Today, 19 November, Tuesday

    Time Temperature Precipitation Wind Pressure Humidity
    00:00 +8°C° 0 mm 3 mps 756 mmHg 92%
    01:00 +8°C° 0 mm 3 mps 756 mmHg 92%
    02:00 +8°C° 0 mm 3 mps 756 mmHg 92%
    03:00 +8°C° 0 mm 3 mps 755 mmHg 93%
    04:00 +8°C° 0 mm 3 mps 755 mmHg 93%
    05:00 +7°C° 0.2 mm 4 mps 755 mmHg 93%
    06:00 +7°C° 0.2 mm 4 mps 754 mmHg 93%
    07:00 +7°C° 0.2 mm 4 mps 754 mmHg 93%
    08:00 +7°C° 0.4 mm 4 mps 755 mmHg 91%
    09:00 +8°C° 0.4 mm 4 mps 755 mmHg 90%
    10:00 +8°C° 0.4 mm 4 mps 755 mmHg 88%
    11:00 +7°C° 0 mm 4 mps 755 mmHg 83%
    12:00 +7°C° 0 mm 4 mps 756 mmHg 79%
    13:00 +6°C° 0 mm 4 mps 756 mmHg 74%
    14:00 +6°C° 0 mm 4 mps 756 mmHg 77%
    15:00 +5°C° 0 mm 3 mps 756 mmHg 80%
    16:00 +5°C° 0 mm 3 mps 756 mmHg 83%
    17:00 +5°C° 1.2 mm 3 mps 756 mmHg 86%
    18:00 +6°C° 1.2 mm 2 mps 756 mmHg 89%
    19:00 +6°C° 1.2 mm 2 mps 757 mmHg 92%
    20:00 +6°C° 0.1 mm 2 mps 757 mmHg 92%
    21:00 +5°C° 0.1 mm 2 mps 757 mmHg 92%
    22:00 +5°C° 0.1 mm 2 mps 758 mmHg 92%
    23:00 +5°C° 0 mm 2 mps 758 mmHg 92%

    Tomorrow, 20 November, Wednesday

    Time Temperature Precipitation Wind Pressure Humidity
    00:00 +5°C° 0 mm 2 mps 759 mmHg 91%
    01:00 +5°C° 0 mm 2 mps 760 mmHg 91%
    02:00 +4°C° 0 mm 2 mps 760 mmHg 92%
    03:00 +4°C° 0 mm 2 mps 761 mmHg 92%
    04:00 +5°C° 0 mm 1 mps 761 mmHg 93%
    05:00 +5°C° 0 mm 1 mps 762 mmHg 93%
    06:00 +5°C° 0 mm 1 mps 762 mmHg 93%
    07:00 +5°C° 0 mm 1 mps 763 mmHg 92%
    08:00 +5°C° 0 mm 1 mps 764 mmHg 92%
    09:00 +5°C° 0 mm 1 mps 764 mmHg 92%
    10:00 +6°C° 0 mm 1 mps 765 mmHg 92%
    11:00 +6°C° 0 mm 1 mps 765 mmHg 92%
    12:00 +7°C° 0 mm 1 mps 766 mmHg 92%
    13:00 +7°C° 0 mm 1 mps 766 mmHg 91%
    14:00 +7°C° 0 mm 1 mps 766 mmHg 93%
    15:00 +6°C° 0 mm 1 mps 766 mmHg 94%
    16:00 +6°C° 0 mm 1 mps 767 mmHg 95%
    17:00 +5°C° 0 mm 1 mps 767 mmHg 95%
    18:00 +5°C° 0 mm 1 mps 767 mmHg 95%
    19:00 +4°C° 0 mm 2 mps 767 mmHg 95%
    20:00 +4°C° 0 mm 2 mps 767 mmHg 95%
    21:00 +4°C° 0 mm 2 mps 767 mmHg 95%
    22:00 +4°C° 0 mm 2 mps 767 mmHg 95%
    23:00 +4°C° 0 mm 2 mps 767 mmHg 96%

    Day after tomorrow, 21 November, Thursday

    Time Temperature Precipitation Wind Pressure Humidity
    00:00 +4°C° 0 mm 2 mps 767 mmHg 96%
    01:00 +4°C° 0 mm 2 mps 767 mmHg 97%
    02:00 +5°C° 0 mm 2 mps 767 mmHg 96%
    03:00 +5°C° 0 mm 2 mps 766 mmHg 95%
    04:00 +5°C° 0 mm 3 mps 766 mmHg 94%
    05:00 +5°C° 0 mm 3 mps 766 mmHg 94%
    06:00 +5°C° 0 mm 3 mps 766 mmHg 94%
    07:00 +5°C° 0 mm 3 mps 766 mmHg 94%
    08:00 +5°C° 0 mm 3 mps 766 mmHg 93%
    09:00 +7°C° 0 mm 3 mps 766 mmHg 92%
    10:00 +6°C° 0 mm 4 mps 766 mmHg 91%
    11:00 +6°C° 0 mm 4 mps 766 mmHg 90%
    12:00 +6°C° 0 mm 4 mps 766 mmHg 89%
    13:00 +6°C° 0 mm 4 mps 766 mmHg 87%
    14:00 +6°C° 0 mm 4 mps 766 mmHg 88%
    15:00 +5°C° 0 mm 4 mps 766 mmHg 89%
    16:00 +5°C° 0 mm 4 mps 765 mmHg 89%
    17:00 +5°C° 0 mm 4 mps 765 mmHg 89%
    18:00 +5°C° 0 mm 4 mps 765 mmHg 89%
    19:00 +5°C° 0 mm 4 mps 765 mmHg 89%
    20:00 +5°C° 0 mm 4 mps 765 mmHg 89%
    21:00 +5°C° 0 mm 4 mps 765 mmHg 90%
    22:00 +5°C° 0 mm 4 mps 765 mmHg 90%
    23:00 +5°C° 0 mm 3 mps 765 mmHg 90%

    22 November, Friday

    Time Temperature Precipitation Wind Pressure Humidity
    00:00 +5°C° 0 mm 3 mps 765 mmHg 91%
    01:00 +5°C° 0 mm 3 mps 765 mmHg 91%
    02:00 +5°C° 0.1 mm 3 mps 764 mmHg 90%
    03:00 +5°C° 0.1 mm 3 mps 764 mmHg 90%
    04:00 +5°C° 0.1 mm 4 mps 764 mmHg 90%
    05:00 +5°C° 0.2 mm 4 mps 764 mmHg 90%
    06:00 +5°C° 0.2 mm 4 mps 764 mmHg 90%
    07:00 +5°C° 0.2 mm 4 mps 763 mmHg 90%
    08:00 +5°C° 0.1 mm 4 mps 763 mmHg 89%
    09:00 +5°C° 0.1 mm 4 mps 763 mmHg 89%
    10:00 +5°C° 0.1 mm 4 mps 763 mmHg 88%
    11:00 +5°C° 0.1 mm 4 mps 763 mmHg 88%
    12:00 +5°C° 0.1 mm 4 mps 763 mmHg 88%
    13:00 +5°C° 0.1 mm 4 mps 763 mmHg 88%
    14:00 +5°C° 0.1 mm 4 mps 762 mmHg 89%
    15:00 +5°C° 0.1 mm 4 mps 762 mmHg 90%
    16:00 +4°C° 0.1 mm 4 mps 762 mmHg 91%
    17:00 +5°C° 0.3 mm 4 mps 762 mmHg 91%
    18:00 +5°C° 0.3 mm 4 mps 762 mmHg 91%
    19:00 +5°C° 0.3 mm 4 mps 762 mmHg 92%
    20:00 +5°C° 0.3 mm 4 mps 761 mmHg 92%
    21:00 +5°C° 0.3 mm 4 mps 761 mmHg 92%
    22:00 +5°C° 0.3 mm 4 mps 761 mmHg 92%
    23:00 +5°C° 0.1 mm 4 mps 761 mmHg 92%

    23 November, Saturday

    Time Temperature Precipitation Wind Pressure Humidity
    00:00 +5°C° 0.1 mm 4 mps 761 mmHg 93%
    01:00 +5°C° 0.1 mm 4 mps 761 mmHg 93%
    02:00 +5°C° 0.3 mm 4 mps 760 mmHg 93%
    03:00 +5°C° 0.3 mm 4 mps 760 mmHg 94%
    04:00 +5°C° 0.3 mm 3 mps 760 mmHg 94%
    05:00 +5°C° 0.2 mm 3 mps 760 mmHg 94%
    06:00 +5°C° 0.2 mm 3 mps 761 mmHg 94%
    07:00 +5°C° 0.2 mm 3 mps 761 mmHg 95%
    08:00 +7°C° 0.1 mm 3 mps 761 mmHg 94%
    09:00 +7°C° 0.1 mm 3 mps 761 mmHg 94%
    10:00 +7°C° 0.1 mm 3 mps 761 mmHg 93%
    11:00 +7°C° 0.1 mm 3 mps 761 mmHg 93%
    12:00 +7°C° 0.1 mm 3 mps 761 mmHg 92%
    13:00 +7°C° 0.1 mm 3 mps 761 mmHg 91%
    14:00 +7°C° 0.1 mm 3 mps 761 mmHg 92%
    15:00 +6°C° 0.1 mm 2 mps 762 mmHg 92%
    16:00 +6°C° 0.1 mm 2 mps 762 mmHg 92%
    17:00 +6°C° 0 mm 2 mps 762 mmHg 92%
    18:00 +6°C° 0 mm 2 mps 762 mmHg 92%
    19:00 +6°C° 0 mm 2 mps 762 mmHg 92%
    20:00 +6°C° 0 mm 2 mps 762 mmHg 92%
    21:00 +6°C° 0 mm 2 mps 763 mmHg 92%
    22:00 +5°C° 0 mm 2 mps 763 mmHg 92%
    23:00 +5°C° 0 mm 2 mps 763 mmHg 92%

    24 November, Sunday

    Time Temperature Precipitation Wind Pressure Humidity
    00:00 +5°C° 0 mm 2 mps 763 mmHg 91%
    01:00 +5°C° 0 mm 2 mps 763 mmHg 91%
    02:00 +5°C° 0 mm 2 mps 763 mmHg 91%
    03:00 +5°C° 0 mm 2 mps 763 mmHg 90%
    04:00 +5°C° 0 mm 2 mps 763 mmHg 90%
    05:00 +5°C° 0 mm 2 mps 763 mmHg 89%
    06:00 +4°C° 0 mm 2 mps 763 mmHg 89%
    07:00 +4°C° 0 mm 2 mps 763 mmHg 89%
    08:00 +4°C° 0 mm 2 mps 763 mmHg 88%
    09:00 +4°C° 0 mm 2 mps 763 mmHg 86%
    10:00 +4°C° 0 mm 2 mps 763 mmHg 85%
    11:00 +4°C° 0 mm 2 mps 763 mmHg 85%
    12:00 +4°C° 0 mm 2 mps 763 mmHg 85%
    13:00 +5°C° 0 mm 2 mps 763 mmHg 85%
    14:00 +4°C° 0 mm 2 mps 762 mmHg 85%
    15:00 +4°C° 0 mm 2 mps 762 mmHg 86%
    16:00 +4°C° 0 mm 2 mps 762 mmHg 87%
    17:00 +4°C° 0 mm 2 mps 762 mmHg 87%
    18:00 +3°C° 0 mm 3 mps 762 mmHg 87%
    19:00 +3°C° 0 mm 3 mps 762 mmHg 87%
    20:00 +3°C° 0 mm 3 mps 761 mmHg 87%
    21:00 +4°C° 0 mm 2 mps 761 mmHg 87%
    22:00 +4°C° 0 mm 2 mps 761 mmHg 87%
    23:00 +4°C° 0 mm 2 mps 761 mmHg 88%
    Show more